La Porte, IN

5:24 AM CDT on April 22, 2018 (GMT -0500)
La Porte Municipal

Weather History for KPPO - October, 2012

Change the Weather History Date:

Friday, October 12, 2012

  Actual Average (KSBN) Record (KSBN)
Temperature  
Mean Temperature 43 °F -  
Max Temperature 53 °F 63 °F 84 °F (2008)
Min Temperature 33 °F 43 °F 16 °F (1906)
Degree Days  
Heating Degree Days 22    
Moisture  
Dew Point 29 °F    
Average Humidity 59    
Maximum Humidity 87    
Minimum Humidity 28    
Precipitation  
Precipitation 0.00 in - - ()
Sea Level Pressure  
Sea Level Pressure 30.36 in    
Wind  
Wind Speed 7 mph ()    
Max Wind Speed 15 mph    
Max Gust Speed 20 mph    
Visibility 9.4 miles    
Events Rain    
Averages and records for this station are not official NWS values.
T = Trace of Precipitation, MM = Missing Value Source: Averaged Metar Reports

Daily Weather History Graph

Daily Weather History Graph

Search for Another Location

Airport or City:

Astronomy

Oct. 12, 2012 Rise Set
Actual Time 6:56 AM CDT 6:09 PM CDT
Civil Twilight 6:28 AM CDT 6:37 PM CDT
Nautical Twilight 5:56 AM CDT 7:09 PM CDT
Astronomical Twilight 5:23 AM CDT 7:41 PM CDT
Moon 3:36 AM CDT (10/12) 4:20 PM CDT (10/12)
Length of Visible Light 12h 09m
Length of Day
11h 13m
Waning Crescent, 10% of the Moon is Illuminated
Oct 12
Waning Crescent
Oct 15
New
Oct 21
First Quarter
Oct 29
Full
Nov 6
Last Quarter

Hourly Weather History & Observations

Time (CDT) Temp. Windchill Dew Point Humidity Pressure Visibility Wind Dir Wind Speed Gust Speed Precip Events Conditions
12:15 AM 48.2 °F - 38.3 °F 69% 30.24 in 10.0 mi North 12.7 mph - N/A   Overcast
12:35 AM 47.5 °F - 38.3 °F 70% 30.24 in 10.0 mi North 12.7 mph 17.3 mph N/A Rain Light Rain
1:15 AM 46.9 °F - 39.0 °F 74% 30.26 in 10.0 mi North 10.4 mph 17.3 mph N/A   Overcast
1:35 AM 46.6 °F - 38.7 °F 74% 30.25 in 10.0 mi North 8.1 mph - N/A   Overcast
1:55 AM 46.4 °F 41.9 °F 38.1 °F 73% 30.27 in 10.0 mi North 9.2 mph - N/A   Overcast
2:15 AM 46.2 °F 39.8 °F 37.4 °F 71% 30.27 in 10.0 mi North 15.0 mph 19.6 mph N/A   Overcast
2:35 AM 45.5 °F 40.8 °F 37.8 °F 74% 30.28 in 10.0 mi North 9.2 mph - N/A   Overcast
3:15 AM 43.9 °F 37.9 °F 40.1 °F 87% 30.28 in 10.0 mi NE 11.5 mph - N/A   Overcast
3:35 AM 43.9 °F 37.9 °F 39.6 °F 85% 30.28 in 10.0 mi NE 11.5 mph - N/A   Overcast
3:55 AM 43.7 °F 38.6 °F 38.7 °F 82% 30.30 in 10.0 mi NE 9.2 mph - N/A   Overcast
4:15 AM 43.3 °F 38.1 °F 37.8 °F 81% 30.31 in 10.0 mi NE 9.2 mph - N/A   Overcast
4:35 AM 43.2 °F 39.0 °F 35.8 °F 75% 30.32 in 10.0 mi NE 6.9 mph - N/A   Overcast
4:55 AM 42.8 °F 38.6 °F 35.6 °F 76% 30.33 in 10.0 mi ENE 6.9 mph - N/A   Overcast
5:15 AM 41.5 °F 37.1 °F 36.3 °F 82% 30.34 in 10.0 mi ENE 6.9 mph - N/A   Mostly Cloudy
5:35 AM 40.6 °F 36.0 °F 34.9 °F 80% 30.35 in 10.0 mi NE 6.9 mph - N/A   Scattered Clouds
5:55 AM 39.6 °F 34.7 °F 33.8 °F 80% 30.35 in 10.0 mi NE 6.9 mph - N/A   Scattered Clouds
6:15 AM 38.8 °F 34.6 °F 33.3 °F 80% 30.36 in 10.0 mi NE 5.8 mph - N/A   Scattered Clouds
6:35 AM 38.3 °F 33.9 °F 33.4 °F 83% 30.37 in 10.0 mi ENE 5.8 mph - N/A   Clear
6:55 AM 37.4 °F 32.8 °F 32.5 °F 83% 30.37 in 10.0 mi ENE 5.8 mph - N/A   Clear
7:15 AM 37.6 °F 33.1 °F 32.5 °F 82% 30.38 in 10.0 mi ENE 5.8 mph - N/A   Clear
7:35 AM 37.8 °F 33.3 °F 32.2 °F 80% 30.39 in 10.0 mi ENE 5.8 mph - N/A   Clear
7:55 AM 39.0 °F 35.7 °F 32.5 °F 78% 30.40 in 10.0 mi East 4.6 mph - N/A   Clear
8:15 AM 40.3 °F 35.5 °F 32.4 °F 73% 30.41 in 10.0 mi East 6.9 mph - N/A   Clear
8:35 AM 41.4 °F 35.7 °F 32.0 °F 69% 30.43 in 10.0 mi East 9.2 mph - N/A   Clear
8:55 AM 42.4 °F 36.5 °F 31.8 °F 66% 30.43 in 10.0 mi East 10.4 mph - N/A   Clear
9:15 AM 43.2 °F 37.0 °F 30.6 °F 61% 30.43 in 10.0 mi ENE 11.5 mph - N/A   Clear
9:35 AM 45.0 °F 39.7 °F 30.9 °F 58% 30.44 in 10.0 mi East 10.4 mph - N/A   Clear
9:55 AM 45.7 °F 40.2 °F 28.4 °F 51% 30.44 in 10.0 mi East 11.5 mph - N/A   Clear
10:15 AM 46.4 °F 41.1 °F 27.0 °F 47% 30.44 in 10.0 mi ENE 11.5 mph 16.1 mph N/A   Clear
10:35 AM 47.3 °F - 25.9 °F 43% 30.44 in 10.0 mi East 10.4 mph - N/A   Clear
10:55 AM 47.3 °F - 26.1 °F 44% 30.44 in 10.0 mi East 13.8 mph 19.6 mph N/A   Clear
11:15 AM 48.4 °F - 24.8 °F 40% 30.44 in 10.0 mi NE 12.7 mph 18.4 mph N/A   Clear
11:35 AM 49.5 °F - 24.8 °F 38% 30.44 in 10.0 mi ENE 9.2 mph - N/A   Clear
12:15 PM 50.0 °F - 23.7 °F 36% 30.44 in 10.0 mi East 8.1 mph - N/A   Clear
12:35 PM 50.5 °F - 24.3 °F 36% 30.43 in 10.0 mi Calm Calm - N/A   Clear
12:55 PM 50.9 °F - 24.3 °F 35% 30.43 in 10.0 mi East 8.1 mph - N/A   Clear
1:35 PM 51.8 °F - 23.0 °F 33% 30.41 in 10.0 mi ESE 8.1 mph - N/A   Clear
1:55 PM 51.8 °F - 21.9 °F 31% 30.41 in 10.0 mi East 6.9 mph - N/A   Clear
2:15 PM 52.0 °F - 21.9 °F 31% 30.40 in 10.0 mi East 5.8 mph - N/A   Clear
2:35 PM 51.8 °F - 21.6 °F 31% 30.40 in 10.0 mi ESE 4.6 mph - N/A   Clear
2:55 PM 52.7 °F - 21.2 °F 29% 30.39 in 10.0 mi ESE 6.9 mph - N/A   Clear
3:15 PM 52.5 °F - 21.2 °F 29% 30.39 in 10.0 mi Calm Calm - N/A   Clear
3:35 PM 52.7 °F - 21.0 °F 29% 30.38 in 10.0 mi Calm Calm - N/A   Clear
3:55 PM 53.1 °F - 22.3 °F 30% 30.37 in 10.0 mi NE 3.5 mph - N/A   Clear
4:15 PM 53.1 °F - 20.1 °F 28% 30.37 in 10.0 mi East 5.8 mph - N/A   Clear
4:35 PM 52.5 °F - 20.8 °F 29% 30.37 in 10.0 mi Calm Calm - N/A   Clear
5:15 PM 51.8 °F - 20.8 °F 30% 30.36 in 7.0 mi ESE 5.8 mph - N/A   Clear
5:55 PM 48.0 °F - 23.4 °F 38% 30.36 in 0.5 mi ESE 4.6 mph - N/A   Haze
6:15 PM 45.7 °F 44.4 °F 23.2 °F 41% 30.36 in 0.5 mi ESE 3.5 mph - N/A   Haze
6:35 PM 43.7 °F 42.1 °F 23.5 °F 45% 30.35 in 1.2 mi East 3.5 mph - N/A   Haze
6:55 PM 38.8 °F - 24.3 °F 56% 30.35 in 4.0 mi Calm Calm - N/A   Haze
7:15 PM 39.2 °F - 25.9 °F 59% 30.36 in 10.0 mi Calm Calm - N/A   Clear
7:35 PM 36.0 °F - 26.6 °F 69% 30.36 in 10.0 mi Calm Calm - N/A   Clear
7:55 PM 38.1 °F - 26.1 °F 62% 30.36 in 10.0 mi Calm Calm - N/A   Scattered Clouds
8:15 PM 36.5 °F - 25.7 °F 65% 30.36 in 10.0 mi Calm Calm - N/A   Clear
8:35 PM 37.2 °F - 25.3 °F 62% 30.35 in 10.0 mi Calm Calm - N/A   Clear
9:15 PM 38.7 °F 36.3 °F 25.2 °F 58% 30.35 in 10.0 mi East 3.5 mph - N/A   Clear
9:35 PM 36.1 °F - 25.7 °F 66% 30.34 in 10.0 mi Calm Calm - N/A   Clear
9:55 PM 36.7 °F 34.1 °F 25.7 °F 64% 30.34 in 10.0 mi East 3.5 mph - N/A   Clear
10:15 PM 35.1 °F 32.2 °F 25.7 °F 69% 30.34 in 10.0 mi ESE 3.5 mph - N/A   Clear
10:35 PM 34.3 °F 31.4 °F 25.7 °F 71% 30.33 in 10.0 mi ESE 3.5 mph - N/A   Clear
10:55 PM 33.4 °F - 25.3 °F 72% 30.32 in 10.0 mi Calm Calm - N/A   Clear
11:35 PM 36.0 °F - 25.3 °F 65% 30.31 in 10.0 mi Calm Calm - N/A   Clear
11:55 PM 36.7 °F 34.1 °F 25.2 °F 63% 30.30 in 10.0 mi SE 3.5 mph - N/A   Clear